When you browse on this site, cookies collect data to enhance your experience and personalize the content and advertising you see.
Visit our Privacy Policy to learn more. By continuing to use the site, you agree to this use of cookies and data.
  • en Suisse
  • Liste des pays
  • À 7 jours
  • Température de l'eau
  • Carte météo
  • Widgets météo
  • user-avatar
    Se connecter

    Météo par heure à Gloster

    Ce jour, 15 Décembre, Dimanche

    Heure Température Précipitation Vent Pression Humidité
    00:00 +3°C° 0 mm 9 m/s 732 mmHg 93%
    01:00 +3°C° 0.5 mm 9 m/s 733 mmHg 86%
    02:00 +2°C° 0.5 mm 8 m/s 734 mmHg 80%
    03:00 +1°C° 0.5 mm 8 m/s 735 mmHg 73%
    04:00 +2°C° 0 mm 7 m/s 735 mmHg 74%
    05:00 +2°C° 0 mm 7 m/s 736 mmHg 74%
    06:00 +2°C° 0 mm 5 m/s 736 mmHg 78%
    07:00 +2°C° 0.2 mm 5 m/s 737 mmHg 82%
    08:00 +2°C° 0.2 mm 5 m/s 737 mmHg 85%
    09:00 +3°C° 0.2 mm 5 m/s 738 mmHg 89%
    10:00 +5°C° 0.1 mm 5 m/s 739 mmHg 86%
    11:00 +4°C° 0.1 mm 6 m/s 739 mmHg 82%
    12:00 +6°C° 0 mm 5 m/s 740 mmHg 83%
    13:00 +5°C° 0.1 mm 6 m/s 740 mmHg 81%
    14:00 +5°C° 0.1 mm 6 m/s 740 mmHg 80%
    15:00 +5°C° 0.1 mm 7 m/s 740 mmHg 78%
    16:00 +4°C° 0 mm 6 m/s 740 mmHg 80%
    17:00 +4°C° 0 mm 6 m/s 740 mmHg 81%
    18:00 +3°C° 0 mm 5 m/s 740 mmHg 83%
    19:00 +3°C° 0.2 mm 5 m/s 741 mmHg 84%
    20:00 +3°C° 0.2 mm 5 m/s 741 mmHg 85%
    21:00 +5°C° 0.2 mm 5 m/s 741 mmHg 86%
    22:00 +5°C° 0.4 mm 5 m/s 741 mmHg 86%
    23:00 +3°C° 0.4 mm 5 m/s 741 mmHg 86%

    Demain, 16 Décembre, Lundi

    Heure Température Précipitation Vent Pression Humidité
    00:00 +3°C° 0.4 mm 6 m/s 741 mmHg 86%
    01:00 +3°C° 0 mm 5 m/s 741 mmHg 85%
    02:00 +3°C° 0 mm 5 m/s 741 mmHg 85%
    03:00 +3°C° 0 mm 5 m/s 741 mmHg 84%
    04:00 +4°C° 0 mm 4 m/s 741 mmHg 84%
    05:00 +3°C° 0 mm 4 m/s 741 mmHg 85%
    06:00 +3°C° 0 mm 4 m/s 742 mmHg 85%
    07:00 +3°C° 0 mm 3 m/s 742 mmHg 86%
    08:00 +3°C° 0 mm 3 m/s 743 mmHg 87%
    09:00 +3°C° 0 mm 3 m/s 743 mmHg 87%
    10:00 +5°C° 0 mm 2 m/s 743 mmHg 85%
    11:00 +6°C° 0 mm 2 m/s 743 mmHg 83%
    12:00 +6°C° 0 mm 2 m/s 743 mmHg 81%
    13:00 +6°C° 0 mm 2 m/s 743 mmHg 82%
    14:00 +6°C° 0 mm 2 m/s 743 mmHg 84%
    15:00 +7°C° 0 mm 1 m/s 743 mmHg 86%
    16:00 +6°C° 0 mm 1 m/s 743 mmHg 87%
    17:00 +6°C° 0 mm 1 m/s 743 mmHg 88%
    18:00 +5°C° 0 mm 1 m/s 743 mmHg 89%
    19:00 +5°C° 0 mm 1 m/s 743 mmHg 89%
    20:00 +5°C° 0 mm 1 m/s 743 mmHg 89%
    21:00 +5°C° 0 mm 1 m/s 743 mmHg 89%
    22:00 +5°C° 0 mm 1 m/s 743 mmHg 90%
    23:00 +5°C° 0 mm 1 m/s 743 mmHg 91%

    Après-demain, 17 Décembre, Mardi

    Heure Température Précipitation Vent Pression Humidité
    00:00 +5°C° 0 mm 1 m/s 743 mmHg 91%
    01:00 +5°C° 0 mm 1 m/s 743 mmHg 92%
    02:00 +5°C° 0 mm 1 m/s 742 mmHg 92%
    03:00 +5°C° 0 mm 1 m/s 742 mmHg 92%
    04:00 +5°C° 0 mm 1 m/s 742 mmHg 93%
    05:00 +5°C° 0 mm 1 m/s 742 mmHg 93%
    06:00 +5°C° 0 mm 1 m/s 741 mmHg 94%
    07:00 +5°C° 0 mm 1 m/s 742 mmHg 94%
    08:00 +5°C° 0 mm 1 m/s 742 mmHg 94%
    09:00 +5°C° 0 mm 1 m/s 742 mmHg 94%
    10:00 +5°C° 0 mm 1 m/s 742 mmHg 93%
    11:00 +6°C° 0 mm 1 m/s 742 mmHg 91%
    12:00 +6°C° 0 mm 1 m/s 742 mmHg 89%
    13:00 +6°C° 0 mm 1 m/s 743 mmHg 90%
    14:00 +6°C° 0 mm 1 m/s 743 mmHg 91%
    15:00 +6°C° 0 mm 1 m/s 743 mmHg 91%
    16:00 +5°C° 0 mm 1 m/s 744 mmHg 92%
    17:00 +5°C° 0 mm 1 m/s 744 mmHg 92%
    18:00 +4°C° 0 mm 1 m/s 745 mmHg 93%
    19:00 +3°C° 0 mm 2 m/s 745 mmHg 93%
    20:00 +3°C° 0 mm 2 m/s 746 mmHg 93%
    21:00 +2°C° 0 mm 2 m/s 746 mmHg 92%
    22:00 +2°C° 0 mm 2 m/s 746 mmHg 92%
    23:00 +3°C° 0 mm 1 m/s 747 mmHg 91%

    18 Décembre, Mercredi

    Heure Température Précipitation Vent Pression Humidité
    00:00 +2°C° 0 mm 1 m/s 747 mmHg 90%
    01:00 +3°C° 0 mm 1 m/s 747 mmHg 90%
    02:00 +3°C° 0 mm 1 m/s 747 mmHg 89%
    03:00 +2°C° 0 mm 2 m/s 748 mmHg 89%
    04:00 +2°C° 0 mm 2 m/s 748 mmHg 89%
    05:00 +1°C° 0 mm 2 m/s 748 mmHg 89%
    06:00 +1°C° 0 mm 2 m/s 748 mmHg 89%
    07:00 +1°C° 0 mm 2 m/s 748 mmHg 88%
    08:00 +1°C° 0 mm 2 m/s 748 mmHg 88%
    09:00 +1°C° 0 mm 2 m/s 748 mmHg 87%
    10:00 +2°C° 0 mm 3 m/s 748 mmHg 85%
    11:00 +3°C° 0 mm 3 m/s 748 mmHg 83%
    12:00 +4°C° 0 mm 4 m/s 748 mmHg 81%
    13:00 +4°C° 0 mm 4 m/s 747 mmHg 84%
    14:00 +5°C° 0 mm 4 m/s 747 mmHg 86%
    15:00 +5°C° 0 mm 4 m/s 746 mmHg 89%
    16:00 +3°C° 0 mm 5 m/s 746 mmHg 90%
    17:00 +3°C° 0 mm 5 m/s 745 mmHg 91%
    18:00 +2°C° 0 mm 6 m/s 744 mmHg 91%
    19:00 +2°C° 0 mm 6 m/s 744 mmHg 90%
    20:00 +2°C° 0 mm 7 m/s 743 mmHg 89%
    21:00 +3°C° 0 mm 7 m/s 743 mmHg 87%
    22:00 +2°C° 0 mm 8 m/s 742 mmHg 88%
    23:00 +2°C° 0 mm 8 m/s 741 mmHg 89%

    19 Décembre, Jeudi

    Heure Température Précipitation Vent Pression Humidité
    00:00 +4°C° 0 mm 8 m/s 740 mmHg 90%
    01:00 +3°C° 0.5 mm 9 m/s 739 mmHg 90%
    02:00 +5°C° 0.5 mm 9 m/s 737 mmHg 91%
    03:00 +5°C° 0.5 mm 10 m/s 736 mmHg 92%
    04:00 +6°C° 1.5 mm 10 m/s 735 mmHg 91%
    05:00 +7°C° 1.5 mm 10 m/s 734 mmHg 89%
    06:00 +7°C° 1.5 mm 10 m/s 733 mmHg 88%
    07:00 +7°C° 0 mm 9 m/s 734 mmHg 87%
    08:00 +6°C° 0 mm 8 m/s 735 mmHg 86%
    09:00 +6°C° 0 mm 7 m/s 736 mmHg 85%
    10:00 +7°C° 0 mm 6 m/s 737 mmHg 84%
    11:00 +8°C° 0 mm 5 m/s 737 mmHg 83%
    12:00 +8°C° 0 mm 5 m/s 738 mmHg 82%
    13:00 +8°C° 0 mm 4 m/s 738 mmHg 84%
    14:00 +8°C° 0 mm 4 m/s 739 mmHg 85%
    15:00 +8°C° 0 mm 3 m/s 739 mmHg 86%
    16:00 +7°C° 0 mm 3 m/s 739 mmHg 89%
    17:00 +5°C° 0 mm 3 m/s 739 mmHg 91%
    18:00 +5°C° 0 mm 3 m/s 739 mmHg 93%
    19:00 +5°C° 0 mm 2 m/s 739 mmHg 94%
    20:00 +5°C° 0 mm 2 m/s 739 mmHg 94%
    21:00 +5°C° 0 mm 2 m/s 739 mmHg 95%
    22:00 +5°C° 0 mm 2 m/s 738 mmHg 95%
    23:00 +5°C° 0 mm 2 m/s 738 mmHg 95%

    20 Décembre, Vendredi

    Heure Température Précipitation Vent Pression Humidité
    00:00 +5°C° 0 mm 2 m/s 738 mmHg 95%
    01:00 +5°C° 0 mm 2 m/s 738 mmHg 95%
    02:00 +5°C° 0 mm 2 m/s 737 mmHg 96%
    03:00 +5°C° 0 mm 2 m/s 737 mmHg 96%
    04:00 +5°C° 0.2 mm 2 m/s 737 mmHg 96%
    05:00 +5°C° 0.2 mm 3 m/s 736 mmHg 96%
    06:00 +5°C° 0.2 mm 3 m/s 736 mmHg 96%
    07:00 +5°C° 0.1 mm 3 m/s 736 mmHg 96%
    08:00 +5°C° 0.1 mm 3 m/s 736 mmHg 96%
    09:00 +5°C° 0.1 mm 3 m/s 736 mmHg 95%
    10:00 +7°C° 0 mm 3 m/s 736 mmHg 93%
    11:00 +7°C° 0 mm 3 m/s 736 mmHg 92%
    12:00 +8°C° 0 mm 3 m/s 736 mmHg 90%
    13:00 +8°C° 0 mm 2 m/s 736 mmHg 91%
    14:00 +8°C° 0 mm 2 m/s 736 mmHg 92%
    15:00 +7°C° 0 mm 2 m/s 736 mmHg 93%
    16:00 +7°C° 0.3 mm 2 m/s 736 mmHg 94%
    17:00 +7°C° 0.3 mm 2 m/s 736 mmHg 94%
    18:00 +7°C° 0.3 mm 2 m/s 736 mmHg 95%
    19:00 +6°C° 1 mm 2 m/s 737 mmHg 95%
    20:00 +7°C° 1 mm 1 m/s 737 mmHg 95%
    21:00 +7°C° 1 mm 1 m/s 737 mmHg 95%
    22:00 +7°C° 0.1 mm 1 m/s 737 mmHg 94%
    23:00 +5°C° 0.1 mm 2 m/s 738 mmHg 94%
    Voir plus